Location: Großweier
(48.6505°N, 8.0468°E)
Time: 13:16:56
(UTC+00:00)

Daily predictions for brighter satellites

Satellite Brightness Start Highest point End
(mag) Time Altitude Azimuth Time Altitude Azimuth Time Altitude Azimuth
Cosmos 2369 4.0 19:28:21 10° NNW 19:34:00 58° ENE 19:39:39 10° SE
Cosmos 909 Rocket 4.5 19:32:11 10° S 19:38:00 39° ESE 19:43:51 10° NE
PAYLOAD B 4.3 19:32:28 10° SSE 19:38:00 90° W 19:43:35 10° NNW
Cosmos 2228 3.5 19:35:06 10° SSE 19:38:52 36° E 19:42:39 10° NNE
GEOS 3 Rocket 4.2 19:34:21 10° SSE 19:39:33 56° SW 19:44:52 10° NW
Okean-O 3.3 19:35:55 10° SE 19:39:58 39° ENE 19:44:04 10° N
Cosmos 1331 Rocket 4.4 19:35:50 10° SSW 19:41:03 73° WNW 19:46:17 10° NNE
USA 186 2.8 19:39:15 10° SE 19:41:30 23° ENE 19:43:46 10° NNE
USA 305 3.3 19:38:09 10° WNW 19:42:05 47° SW 19:45:42 10° SE
Cosmos 1452 Rocket 3.5 19:38:17 10° SSW 19:43:30 86° ESE 19:48:47 10° NNE
NOSS 3-3 (A) 4.0 19:39:14 10° S 19:44:01 42° ESE 19:49:37 10° NE
Cosmos 1725 Rocket 4.0 19:38:08 10° S 19:44:19 69° E 19:50:31 10° NNE
Cosmos 1697 Rocket 4.2 19:39:35 10° NW 19:44:33 33° WSW 19:49:29 10° SSW
ISS -3.6 19:44:29 10° WSW 19:47:49 80° NNW 19:51:10 10° ENE
Meteor 1-27 4.2 19:44:23 10° S 19:50:00 70° E 19:55:34 10° NNE
ADEOS 3.6 19:45:40 10° SSE 19:50:53 88° ENE 19:56:09 10° NNW
Tsikada Rocket 4.1 19:44:55 10° N 19:51:01 59° ENE 19:57:04 10° SSE
Cosmos 1302 Rocket 4.0 19:48:48 10° S 19:53:54 67° ESE 19:59:04 10° NNE
USA 306 2.2 19:50:35 10° WSW 19:53:58 66° NNW 19:56:20 10° ENE
Cosmos 2084 Rocket 3.4 19:50:24 10° NW 19:54:36 81° SW 19:58:40 11° SE
CZ-4B R/B 4.0 19:54:43 11° ESE 19:57:16 22° ENE 20:00:00 10° NNE
SL-16 R/B 3.0 19:52:51 10° NNW 19:58:14 41° NE 20:03:19 11° ESE
Cosmos 2016 Rocket 4.0 19:53:26 10° S 19:59:41 81° E 20:05:53 10° N
Cosmos 724 4.4 19:53:50 10° SW 19:59:52 85° NW 20:05:49 10° NE
CZ-4C R/B 2.6 19:55:57 10° WSW 20:00:10 56° NW 20:05:39 10° NE
SKYMED 3 4.3 19:59:03 10° NNE 20:03:01 87° E 20:06:59 10° SSW
SL-08 R/B 3.3 19:58:23 10° NNE 20:03:14 71° ESE 20:07:57 10° S
DELTA 2 R/B (1) 4.4 20:04:42 10° SW 20:09:35 32° S 20:13:54 12° ESE
COSMOS 2406 3.6 20:04:40 10° S 20:10:01 42° ESE 20:15:23 10° NE
Helios 1A Rocket 3.4 20:08:33 10° N 20:11:35 45° WNW 20:14:36 10° SW
Terra 2.6 20:07:56 10° S 20:12:28 50° W 20:17:04 10° NNW
Cosmos 1743 3.5 20:10:49 10° NNW 20:13:39 36° W 20:16:26 10° SSW
Meteor 2-12 Rocket 4.5 20:08:11 10° N 20:14:17 86° W 20:20:24 10° S
NOSS 3-3 (C) 3.7 20:10:02 10° SSW 20:15:05 58° ESE 20:21:08 10° NE
Cosmos 1980 Rocket 3.3 20:09:48 10° NW 20:15:08 42° WSW 20:20:24 10° S
CZ-4 R/B 3.5 20:12:56 10° SW 20:15:45 21° W 20:18:35 10° NW
YAOGAN 11 4.2 20:11:42 10° NNE 20:16:06 62° ESE 20:20:31 10° S
Cosmos 1933 4.1 20:19:19 17° SE 20:21:37 31° E 20:25:01 10° NNE
Cosmos 2333 Rocket 2.6 20:18:04 10° NNW 20:23:40 54° NE 20:28:05 16° SE
NOSS 3-4 (A) 4.2 20:21:46 10° NW 20:28:11 55° NE 20:34:50 14° ESE
NOSS 3-4 (C) 4.2 20:22:23 10° NW 20:28:49 55° NE 20:35:28 14° ESE
Cosmos 2061 Rocket 4.0 20:23:52 10° S 20:30:06 86° E 20:36:26 10° N
Cosmos 1782 3.7 20:28:07 10° SSW 20:31:28 42° WNW 20:34:51 10° N
Cosmos 1626 Rocket 3.5 20:28:32 10° N 20:32:55 81° E 20:36:17 17° SSE
Cosmos 1805 4.1 20:31:10 10° NNE 20:33:59 25° ENE 20:35:11 20° ESE
SPOT 3 Rocket 3.5 20:33:28 17° SSE 20:37:29 75° ENE 20:42:36 10° N
Cosmos 2098 Rocket 4.0 20:35:17 19° SE 20:37:54 33° E 20:41:46 10° NNE
Cosmos 1607 4.5 20:34:19 10° SW 20:40:25 63° NW 20:46:41 10° NE
Ariane Rocket 3.1 20:37:06 19° SSE 20:40:41 62° ENE 20:45:42 10° N
Cosmos 2360 Rocket 2.8 20:35:58 10° NNW 20:41:26 45° NE 20:45:21 18° ESE
Cosmos 220 Rocket 4.4 20:39:50 21° SSE 20:42:01 37° ESE 20:45:49 10° NE
Spot 2 Rocket 4.3 20:41:27 10° S 20:46:17 48° W 20:51:10 10° NNW
Meteor 1-25 Rocket 4.3 20:42:24 10° N 20:48:05 68° ENE 20:51:51 21° SSE
Cosmos 1606 Rocket 4.4 20:49:17 24° SE 20:50:55 32° E 20:54:46 10° NNE
Okean 1 4.4 20:52:40 22° ESE 20:53:11 23° E 20:56:04 10° NE
Helios 1B rocket 4.5 20:52:04 10° E 20:53:24 12° ENE 20:54:43 10° NE
Cosmos 2151 2.9 20:50:37 10° NNW 20:54:44 81° W 20:57:14 23° S
Cosmos 2219 Rocket 3.1 20:50:12 10° NNW 20:55:29 38° NE 20:59:14 18° ESE
Okean O Rocket 2.9 20:52:44 10° SSW 20:56:40 35° W 21:00:40 10° NNW
Cosmos 1726 Rocket 4.5 20:59:17 25° ESE 21:00:13 27° E 21:03:39 10° NNE
Cosmos 1461 2.4 20:58:19 10° SSW 21:02:01 80° SE 21:05:42 10° NE
CZ-2C R/B 1.8 21:01:37 50° SE 21:02:11 70° ENE 21:04:58 10° N
Okean 1-7 Rocket 3.7 21:04:26 10° N 21:08:52 62° ENE 21:10:52 31° SSE
CZ-4B R/B 3.5 21:07:48 23° S 21:10:44 69° WSW 21:15:35 10° NNW
USA 186 4.1 21:09:09 10° SW 21:10:52 15° W 21:12:36 10° NW
BREEZE-M DEB (TANK) 4.0 20:57:00 10° WSW 21:10:56 77° SSE 21:16:00 10° E
Cosmos 1891 Rocket 4.5 21:05:18 12° S 21:11:02 83° W 21:17:07 10° N
Cosmos 1437 Rocket 3.0 21:09:58 18° SSW 21:12:26 59° WNW 21:16:00 10° N
Cosmos 1544 Rocket 4.2 21:08:29 11° SSW 21:12:36 54° WNW 21:16:51 10° N
Cosmos 2322 Rocket 2.2 21:06:56 10° NNW 21:12:38 77° ENE 21:15:45 28° SE
Cosmos 2082 Rocket 3.7 21:10:54 10° WSW 21:16:12 38° NW 21:21:32 10° NNE
Okean-O 4.5 21:12:48 10° SSW 21:16:23 24° W 21:19:59 10° NW
Cosmos 1777 Rocket 4.0 21:11:17 10° NNW 21:16:33 81° ENE 21:19:08 30° SSE
USA 306 3.8 21:19:06 10° WNW 21:21:01 18° NNW 21:21:48 15° NNE
IRS-1C Rocket 4.5 21:20:12 22° S 21:23:30 59° W 21:28:43 10° NNW
Cosmos 1503 Rocket 4.0 21:18:24 10° NNW 21:23:37 72° ENE 21:25:58 32° SE
ISS -2.8 21:21:35 10° WNW 21:24:51 48° N 21:27:25 15° ENE
Nadezhda 4 Rocket 3.9 21:22:50 10° N 21:29:00 89° E 21:32:26 28° S
Cosmos 44 4.4 21:24:27 10° NNW 21:29:38 44° NE 21:32:53 21° ESE
Cosmos-2242 3.8 21:30:18 31° ESE 21:30:48 32° E 21:34:30 10° NNE
CZ-4B R/B 4.2 21:29:24 19° SW 21:30:55 26° W 21:33:52 10° NW
Meteor 2-10 4.2 21:26:55 10° NNW 21:32:41 83° W 21:35:38 30° S
USA 290 2.1 21:33:39 62° E 21:33:39 62° E 21:36:38 10° NNE
Cosmos 1486 Rocket 4.2 21:29:37 10° NNW 21:34:50 66° WSW 21:37:16 32° S
Cosmos 1707 3.8 21:36:03 21° ENE 21:36:03 21° ENE 21:37:33 10° NNE
Cosmos 1354 Rocket 4.1 21:32:00 10° NNW 21:37:15 66° ENE 21:39:24 35° SE
Cosmos 2278 4.1 21:31:50 10° NW 21:37:24 54° WSW 21:40:11 28° S
Meteor 1-5 Rocket 4.4 21:32:13 10° NNW 21:37:55 71° W 21:41:06 28° S
COSMOS 2428 4.1 21:34:08 10° NNW 21:39:11 31° NE 21:42:51 16° E
SL-16 R/B 3.1 21:37:04 10° NW 21:42:17 39° WSW 21:45:09 23° SSW
Cosmos 1825 Rocket 3.6 21:38:55 10° NNW 21:43:15 72° W 21:44:45 40° S
Cosmos 2195 Rocket 4.4 21:40:58 10° N 21:47:13 84° E 21:50:09 34° SSE
Cosmos 1953 Rocket 3.4 21:44:15 10° N 21:48:37 77° E 21:49:43 49° SSE
Cosmos 1271 Rocket 4.4 21:52:42 18° ENE 21:52:42 18° ENE 21:54:24 10° NE
Cosmos 2026 Rocket 4.0 21:45:34 10° N 21:51:59 78° E 21:54:55 35° SSE
Cosmos 2221 4.2 21:54:54 19° E 21:54:57 19° E 21:57:54 10° NE
Aureole 1 Rocket 4.1 21:52:11 10° NNW 21:57:50 66° ENE 22:00:52 33° SE
Cosmos 2058 Rocket 3.2 21:57:50 49° SE 21:58:30 55° E 22:02:44 10° NNE
Cosmos 540 Rocket 3.3 21:58:20 37° S 22:00:23 79° ESE 22:05:33 10° NNE
Cosmos 1766 2.8 21:59:02 10° N 22:02:02 68° NE 22:02:02 68° NE
Cosmos 1842 4.3 22:05:49 25° ENE 22:05:49 25° ENE 22:07:46 10° NNE
Cosmos 2333 Rocket 3.6 22:02:51 10° NW 22:07:39 28° WSW 22:10:06 21° SW
Spot 4 4.5 22:07:43 35° ESE 22:09:07 45° ENE 22:13:41 10° N
Cosmos 468 Rocket 4.1 22:10:45 45° SSE 22:11:59 57° ESE 22:17:08 10° NNE
Geosat 3.9 22:07:07 10° NNE 22:12:09 85° WNW 22:14:39 30° SW
ARIANE 5 R/B 3.2 22:11:52 39° ESE 22:12:52 47° ENE 22:17:09 10° N
ALOS 2 3.4 22:13:10 34° ESE 22:14:11 40° ENE 22:18:17 10° N
Cosmos 1833 4.2 22:11:32 27° SSW 22:14:48 83° WNW 22:20:29 10° NNE
Cosmos 2297 Rocket 3.8 22:17:12 18° ESE 22:17:25 18° E 22:21:06 10° ENE
Cosmos 1076 Rocket 4.3 22:14:10 10° NNW 22:18:11 41° W 22:19:11 35° SW
NOSS 3-4 (A) 4.4 22:12:39 10° NW 22:19:09 46° WSW 22:22:14 32° S
NOSS 3-4 (C) 4.4 22:13:15 10° NW 22:19:47 47° WSW 22:22:54 32° S
Meteor 2-6 Rocket 4.5 22:18:01 41° SSE 22:19:55 61° E 22:25:47 10° NNE
Cosmos 1536 2.4 22:17:40 10° N 22:21:22 84° W 22:21:26 84° SW
Cosmos 2322 3.9 22:19:24 10° NNW 22:25:06 64° ENE 22:27:17 37° SE
Cosmos 2360 Rocket 3.2 22:20:12 10° NW 22:25:17 35° WSW 22:27:05 28° SW
Helios 1B rocket 2.1 22:25:59 65° W 22:25:59 65° W 22:29:22 10° NNW
Helios 1A 3.3 22:22:11 10° N 22:26:02 56° WNW 22:26:53 44° WSW
CSL-04 DEB 4.0 22:27:08 76° W 22:27:08 76° W 22:30:44 10° NNW
USA 234 3.6 22:24:39 10° ENE 22:30:51 43° SE 22:32:06 39° SSE
PSLV R/B 4.2 22:30:35 10° NNE 22:34:39 40° E 22:34:43 40° E
Cosmos 1092 Rocket 4.3 22:31:49 10° NNW 22:37:51 59° W 22:40:16 36° SSW
Cosmos 1898 Rocket 3.5 22:33:09 10° NNW 22:38:22 74° ENE 22:39:45 48° SE
SeaSat 1 4.4 22:34:44 10° E 22:38:33 23° NE 22:42:23 10° N
Cosmos 1763 Rocket 4.3 22:35:25 21° SW 22:38:43 49° WNW 22:43:51 10° NNE
Cosmos 2219 Rocket 2.8 22:34:10 10° NW 22:39:29 42° WSW 22:40:55 36° SW
Cosmos 1470 2.8 22:37:31 10° N 22:40:17 59° N 22:40:17 59° N
RESURS DK-1 2.3 22:40:15 10° NNW 22:44:14 69° ENE 22:44:26 67° E
TSX-5 4.2 22:46:39 10° NW 22:48:57 45° NW 22:48:57 45° NW
Cosmos 1975 2.6 22:48:09 10° N 22:51:35 75° NNE 22:51:35 75° NNE
MetOp-A 4.3 22:53:43 42° ESE 22:54:56 54° ENE 22:59:32 10° N
Cosmos 2322 Rocket 3.9 22:52:07 10° WNW 22:55:59 19° W 22:57:32 17° WSW
NOSS 0 Rocket 3.9 22:51:32 10° NNW 22:57:45 78° ENE 23:00:06 40° SE
Lacrosse 4 Rocket 3.5 23:01:08 15° E 23:01:08 15° E 23:02:31 10° ENE
SAR-Lupe-2 3.9 23:02:14 58° NNW 23:02:14 58° NNW 23:04:58 10° NNW
SL-16 R/B 4.4 22:57:29 10° N 23:01:42 21° NE 23:05:55 10° E
ISS -2.2 22:58:30 10° WNW 23:00:22 30° WNW 23:00:22 30° WNW
Meteor 2-9 Rocket 4.2 23:03:50 10° NNW 23:09:11 68° W 23:10:27 50° SSW
Cosmos 841 Rocket 3.4 23:09:01 56° SSW 23:10:09 87° ESE 23:15:26 10° NNE
Cosmos 44 4.0 23:05:46 10° NW 23:10:47 41° WSW 23:11:09 40° SW
Cosmos 1812 Rocket 3.4 23:10:37 76° SSE 23:10:57 84° E 23:15:24 10° N
CZ-2C R/B 4.2 23:06:51 10° N 23:11:10 52° WNW 23:12:12 42° WSW
Intercosmos 24 4.1 23:10:26 10° N 23:14:16 52° ENE 23:14:16 52° ENE
Cosmos 2237 Rocket 2.5 23:09:27 10° NNW 23:15:06 61° ENE 23:17:27 34° ESE
Cosmos 2279 Rocket 4.3 23:14:25 36° SW 23:16:56 60° WNW 23:23:09 10° N
Cosmos 1980 3.8 23:13:30 10° NNW 23:19:10 69° ENE 23:21:17 39° SE
Meteor 1-11 Rocket 3.6 23:14:15 10° NNW 23:19:57 83° W 23:21:21 53° S
CZ-2C R/B 2.8 23:18:46 44° SE 23:20:18 65° ENE 23:25:28 10° N
COSMOS 2428 2.9 23:18:10 10° NW 23:23:44 57° WSW 23:24:48 49° SSW
Meteor 2-4 Rocket 4.1 23:23:24 40° SE 23:24:36 47° E 23:29:52 10° NNE
Meteor 1-10 Rocket 4.3 23:23:16 48° SSW 23:25:01 87° WNW 23:31:00 10° N
Cosmos 1271 Rocket 3.9 23:26:03 28° WNW 23:26:03 28° WNW 23:28:58 10° N
ACS3 Solar Sail 3.0 23:21:20 10° NNE 23:26:29 29° E 23:28:30 24° ESE
Cosmos 2227 Rocket 3.4 23:26:17 26° ESE 23:27:09 27° ESE 23:31:48 10° NE
Meteor 2-20 4.3 23:29:37 48° S 23:31:30 86° E 23:37:37 10° N
Cosmos 2221 3.1 23:31:11 42° W 23:31:39 43° WNW 23:35:40 10° N
Cosmos 1238 Rocket 2.9 23:37:43 64° E 23:37:43 64° E 23:41:55 10° NNE
GP-B 3.1 23:33:58 10° N 23:38:18 64° W 23:38:41 61° WSW
BREEZE-M DEB (TANK) 4.2 23:21:18 10° SW 23:38:36 52° SSE 23:43:40 10° E
Cosmos 2263 Rocket 3.7 23:37:50 20° ESE 23:38:55 21° E 23:42:59 10° NE
Cosmos 1842 Rocket 4.4 23:38:31 37° ESE 23:38:56 38° E 23:43:02 10° NNE
Meteor 1-27 Rocket 3.7 23:39:18 50° S 23:40:56 84° E 23:46:43 10° NNE
Cosmos 858 Rocket 4.5 23:39:36 10° NNW 23:44:43 62° WSW 23:45:27 55° SSW
Cosmos 2266 Rocket 4.2 23:40:10 10° NNW 23:46:03 56° W 23:47:46 42° SW
Cosmos 1937 Rocket 4.0 23:43:32 10° NW 23:48:20 40° WSW 23:48:46 39° WSW
ARIANE 5 R/B 4.3 23:49:14 21° W 23:49:24 21° W 23:52:49 10° NW
ALOS 2 4.1 23:50:33 24° W 23:50:39 24° W 23:54:15 10° NW
Sich 1 3.8 23:47:54 10° N 23:51:52 41° ENE 23:52:43 36° ESE
Iridium 4 Rocket 4.0 23:51:28 42° SSE 23:53:15 62° E 23:59:00 10° N
Landsat 5 3.3 23:50:41 10° NNE 23:54:46 71° ESE 23:54:53 71° ESE
